Home   Weather   Letterkenny   Past weeks

Flag for Ireland Past Weather in Letterkenny, Ireland — Yesterday and Last 2 Weeks

Now
44 °F

Quite cool.


Feels Like: 44 °F
Forecast: 40 / 58 °F
Wind: 2 mph from West

Location: Castlederg

Current Time: Oct 1, 2016 at 9:45:13 PM

Latest Report: Oct 1, 2016 at 9:00 PM


Visibility: 15 mi

Pressure: 29.92 "Hg

Humidity: 90%

Dew Point: 42 °F

Location of LetterkennyLocation

Past Weather in Letterkenny — Graph

°F

Letterkenny Temperature Yesterday

Maximum temperature yesterday: 55 °F (at 12:00 PM)
Minimum temperature yesterday: 42 °F (at 8:00 AM)
Average temperature yesterday: 49 °F

High & Low Weather Summary for the Past Weeks

 TemperatureHumidityPressure
High68 °F (Sep 28, 1:00 PM)100% (Sep 22, 9:00 AM)30.29 "Hg (Sep 22, 9:00 AM)
Low34 °F (Sep 22, 7:00 AM)65% (Sep 19, 2:00 PM)29.47 "Hg (Sep 24, 11:00 PM)
Average53 °F88%29.91 "Hg
* Reported Sep 16 8:00 PM — Oct 1 8:00 PM, Letterkenny, Weather by CustomWeather, © 2016

Note: Actual official high and low records may vary slightly from our data, if they occured in-between our weather recording intervals... More about our weather records

Advertising

Letterkenny Weather History for the Previous 24 Hours

Scroll right to see more
 ConditionsComfort  
Time TempWeatherWind HumidityBarometerVisibility
8:00 PM
Sat, Oct 1
49 °FCool.3 mph85%29.90 "Hg31 mi
7:00 PM51 °FCool.2 mph78%29.88 "Hg31 mi
6:00 PM55 °FCool.5 mph72%29.85 "Hg31 mi
5:00 PM56 °FCool.6 mph66%29.83 "Hg31 mi
4:00 PM58 °FCool.7 mph65%29.81 "Hg31 mi
3:00 PM57 °FCool.3 mph66%29.81 "Hg31 mi
2:00 PM57 °FCool.3 mph68%29.81 "Hg31 mi
1:00 PM55 °FCool.6 mph71%29.80 "Hg31 mi
12:00 PM54 °FCool.1 mph78%29.79 "Hg28 mi
10:00 AM39 °FChilly.2 mph99%29.78 "Hg19 mi
9:00 AM37 °FChilly.2 mph98%29.77 "Hg19 mi
8:00 AM37 °FDuststorm.2 mph98%29.75 "Hg1 mi
7:00 AM39 °FChilly.5 mph98%29.73 "Hg2 mi
6:00 AM41 °FDuststorm.1 mph99%29.71 "Hg1 mi
5:00 AM42 °FDuststorm.2 mph98%29.70 "Hg0 mi
4:00 AM41 °FDuststorm.1 mph98%29.70 "Hg0 mi
2:00 AM45 °FCool.1 mph98%29.71 "Hg16 mi
1:00 AM45 °FCool.1 mph98%29.71 "Hg12 mi
12:00 AM45 °FQuite cool.3 mph97%29.72 "Hg11 mi
11:00 PM
Fri, Sep 30
45 °FQuite cool.No wind97%29.72 "Hg13 mi
10:00 PM46 °FCool.No wind95%29.72 "Hg16 mi
9:00 PM47 °FCool.1 mph93%29.72 "Hg25 mi
Weather by CustomWeather, © 2016

See weather overviewHow to use our weather pages